#timestamp,LO_Frequency,Hit,StdDev 
1628899215.6,286047036.2,N
1628899235.4,286047036.2,N
1628899255.2,286047037.3,N
1628899275.1,286047037.7,N
1628899276.0,286047037.7,N
1628899295.8,286047037.0,N
1628899315.7,286047036.9,N
1628899335.5,286047038.6,N
1628899355.8,286047040.3,N
1628899375.6,286047038.1,N
1628899395.5,286047040.4,N
1628899415.3,286047040.6,N
1628899435.2,286047039.5,N
1628899455.9,286047037.4,Y
1628899475.7,286047013.9,P
1628899495.6,286047011.8,N
1628899515.4,286047011.4,N
1628899535.2,286047012.4,N
1628899555.1,286047011.6,N
1628899556.0,286047011.6,N
1628899575.8,286047011.9,N
1628899595.7,286047012.2,N
1628899615.5,286047009.7,N
1628899635.3,286047010.4,N
1628899655.2,286047010.2,N
1628899705.0,286047009.3,E
1628899715.9,286047004.8,N
1628899735.7,286046998.3,P
1628899755.5,286047002.0,N
1628899775.4,286047002.3,N
1628899795.2,286047003.7,N
1628899815.0,286047005.2,N
1628899816.0,286047005.2,N
1628899835.8,286047008.2,Y
1628899855.6,286047003.3,P
1628899875.5,286047005.3,P
1628899895.3,286047008.4,P
1628899915.1,286047010.2,Y
1628899935.9,286047007.1,P
1628899955.7,286047006.7,P
1628899975.6,286047008.3,P
1628899995.4,286047010.7,Y
1628900015.2,286047004.2,P
1628900035.1,286047002.9,N
1628900036.0,286047002.9,N
1628900055.8,286047009.2,Y
1628900075.7,286047003.1,P
1628900095.5,286047005.8,P
1628900115.3,286047006.6,P
1628900135.2,286047006.6,Y
1628900155.0,286047003.7,P
1628900155.9,286047003.7,P
1628900175.7,286047004.0,P
1628900195.6,286047003.8,Y
1628900215.4,286046998.3,P
1628900235.3,286047000.7,N
1628900255.1,286046999.7,N
1628900275.8,286047002.0,N
1628900295.7,286047002.8,N
1628900315.5,286047004.3,N
1628900335.4,286047004.0,N
1628900355.2,286047003.9,N
1628900375.0,286047001.8,N
1628900375.9,286047001.8,N
1628900395.8,286047002.3,N
1628900415.6,286047001.0,N
1628900435.4,286047000.5,N
1628900455.3,286047000.9,N
1628900475.1,286046998.1,N
1628900495.9,286047000.9,N
1628900515.7,286047000.4,N
1628900535.5,286047002.4,N
1628900555.4,286047002.0,N
1628900575.2,286047003.9,N
1628900595.0,286047003.8,N
1628900596.0,286047003.8,N
1628900615.8,286047003.4,N
1628900635.6,286047009.2,Y
1628900655.5,286047006.2,P
1628900675.3,286047006.8,P
1628900695.1,286047006.7,P
1628900715.9,286047006.1,Y
1628900735.7,286047002.0,P
1628900755.6,286047004.2,N
1628900775.4,286047003.3,N
1628900795.2,286047003.2,N
1628900815.1,286047003.2,N
1628900816.0,286047003.2,Y
1628900835.8,286046998.8,P
1628900855.7,286046999.1,N
1628900875.5,286047000.1,N
1628900895.3,286047000.9,N
1628900915.2,286047000.9,N
1628900935.0,286047002.3,N
1628900935.9,286047002.3,N
1628900955.7,286047003.7,N
1628900975.6,286047009.1,Y
1628900995.4,286047006.7,P
1628901015.3,286047008.9,P
1628901035.1,286047007.5,N
1628901055.8,286047004.1,N
1628901075.7,286047002.9,N
1628901095.5,286047006.1,N
1628901115.4,286047008.1,Y
1628901135.2,286047003.8,P
1628901155.0,286047003.8,P
1628901155.9,286047003.8,P
1628901175.8,286047004.9,Y
1628901195.6,286047001.9,P
1628901215.5,286047002.8,N
1628901235.3,286047002.6,N
1628901285.2,286047001.5,E
1628901295.1,286047000.2,N
1628901296.0,286047000.2,P
1628901315.8,286046999.6,P
1628901335.7,286046997.3,Y
1628901355.5,286046998.6,P
1628901375.4,286046999.4,N
1628901395.2,286046995.7,P
1628901415.0,286046996.9,N
1628901415.9,286046996.9,N
1628901435.8,286046996.7,N
1628901455.6,286046998.9,N
1628901475.4,286046996.5,N
1628901495.3,286046995.6,Y
1628901515.1,286047000.3,P
1628901535.9,286047002.3,N
1628901555.7,286047001.6,N
1628901575.5,286047002.5,N
1628901595.4,286047000.6,N
1628901615.2,286047002.2,N
1628901635.1,286047006.0,Y
1628901636.0,286047006.0,P
1628901655.8,286047002.0,N
1628901675.6,286047001.5,N
1628901695.5,286047003.2,N
1628901715.3,286047005.3,N
1628901735.2,286047007.6,Y
1628901755.9,286047002.6,P
1628901775.7,286047004.3,P
1628901795.6,286047001.7,N
1628901815.4,286047004.0,Y
1628901835.2,286046996.8,P
1628901855.1,286046997.4,N
1628901856.0,286046997.4,N
1628901875.8,286046997.5,N
1628901895.7,286046994.6,N
1628901915.5,286046989.7,Y
1628901935.3,286046993.1,P
1628901955.2,286046992.3,P
1628901975.0,286046991.8,P
1628901975.9,286046991.8,Y
1628901995.8,286046998.1,P
1628902015.6,286047001.1,N
1628902035.4,286047002.5,N
1628902055.3,286046999.8,N
1628902075.1,286047000.4,N
1628902095.9,286047002.5,N
1628902115.7,286047002.3,N
1628902135.5,286047004.2,N
1628902155.4,286047004.0,N
1628902175.2,286047005.9,N
1628902195.0,286047004.5,N
1628902196.0,286047004.5,N
1628902215.8,286047007.3,N
1628902235.6,286047008.4,N
1628902255.5,286047010.2,N
1628902275.3,286047008.5,N
1628902295.1,286047007.3,N
1628902315.9,286047008.9,N
1628902335.7,286047008.7,N
1628902355.6,286047006.6,N
1628902375.4,286047004.0,N
1628902395.2,286047001.8,N
1628902415.1,286047003.0,N
1628902416.0,286047003.0,N
1628902435.8,286047005.6,N
1628902455.6,286047004.0,N
1628902475.5,286047006.0,N
1628902495.3,286047007.2,N
1628902515.2,286047006.6,N
1628902535.9,286047007.0,N
1628902555.7,286047008.5,N
1628902575.6,286047008.0,N
1628902595.4,286047009.8,Y
1628902615.3,286047002.6,P
1628902635.1,286047005.7,P
1628902636.0,286047005.7,P
1628902655.8,286047005.3,Y
1628902675.7,286047002.1,P
1628902695.5,286047002.5,N
1628902715.3,286047002.3,N
1628902735.2,286047000.5,N
1628902755.0,286047002.4,N
1628902755.9,286047002.4,N
1628902775.8,286047004.3,Y
1628902795.6,286047000.0,P
